Regional Weather Roundup
Issued by NWS Charleston, SC

Current Version | Previous Version | Graphics & Text | Print | Product List | Glossary On
Versions: 1 2 3 4 5 6 7 8 9 10 11 12 13 14 15 16 17 18 19 20 21 22 23 24 25 26 27 28 29 30 31 32 33 34 35 36 37 38 39 40 41 42 43 44 45 46 47 48 49 50
000 ASUS42 KCHS 191027 RWRCHS REGIONAL WEATHER ROUNDUP NATIONAL WEATHER SERVICE CHARLESTON SC 600 AM EDT THU OCT 19 2017 NOTE: "FAIR" INDICATES FEW OR NO CLOUDS BELOW 12,000 FEET WITH NO SIGNIFICANT WEATHER AND/OR OBSTRUCTIONS TO VISIBILITY. NOT ALL STATIONS ARE QUALITY CONTROLLED. USE DATA WITH CAUTION... ESPECIALLY DEWPOINT OBSERVATIONS. SCZ027-030-031-034>040-042>050-191100- ...SOUTHEAST SOUTH CAROLINA... CITY SKY/WX TMP DP RH WIND PRES REMARKS N CHARLESTON CLEAR 57 53 86 N7 30.22R WATERFRONT PRK N/A 65 59 81 N13 30.06S JOHNS ISLAND FAIR 61 55 82 N6 30.22R PINOPOLIS N/A 61 55 82 NE12 30.13S MONCKS CORNER FAIR 57 50 77 N3 30.23S SUMMERVILLE FAIR 50 50 100 N3 30.24R BEAUFORT MCAS CLEAR 57 55 93 MISG 30.21S BEAUFORT ARPT FAIR 59 54 82 NE8 30.21R HILTON HEAD IS NOT AVBL WALTERBORO SUNNY 52 50 93 CALM 30.24S ALLENDALE NOT AVBL ...SOUTHERN MIDLANDS AND PEE DEE... CITY SKY/WX TMP DP RH WIND PRES REMARKS GEORGETOWN FAIR 55 55 100 N9 30.23S KINGSTREE FAIR 50 46 87 CALM 30.25S ORANGEBURG CLEAR 46 44 93 CALM 30.26R BARNWELL N/A 52 45 76 NE5 30.25S AIKEN FAIR 45 39 81 CALM 30.30S MANNING DRZL/FOG 52 48 87 MISG 30.25S VSB<1/4 COLUMBIA CLEAR 44 42 93 CALM 30.27R SUMTER CLEAR 48 42 81 NE6 30.24S FLORENCE CLEAR 50 47 89 N6 30.27R MYRTLE BEACH CLEAR 58 54 86 N10 30.24S N MYRTLE BEACH CLEAR 59 55 87 NE10 30.23S $$ GAZ063-065-086>088-099>101-113>116-118-119-134>141-150-191100- ...SOUTHEAST GEORGIA... CITY SKY/WX TMP DP RH WIND PRES REMARKS SAVANNAH ARPT PTCLDY 59 54 83 NE6 30.21R HUNTER AAF CLEAR 60 55 83 N6 30.17S FORT STEWART CLEAR 59 53 82 N5 30.18R STATESBORO CLEAR 52 46 78 CALM 30.24R SYLVANIA SUNNY 52 48 88 NE3 30.25R CLAXTON FAIR 54 52 93 CALM 30.23R ...CSRA...CENTRAL AND FAR SOUTHEAST GEORGIA... CITY SKY/WX TMP DP RH WIND PRES REMARKS THOMSON CLEAR 40 39 94 N3 30.33R AUGUSTA-BUSH CLEAR 47 43 86 N6 30.26S AUGUSTA-DANIEL CLEAR 50 43 77 N9 30.27R SWAINSBORO FAIR 54 45 71 NE7 30.25R VIDALIA CLEAR 54 50 87 NE6 30.23R EASTMAN FAIR 47 47 100 CALM 30.26R HAZLEHURST FAIR 56 48 74 NE3 30.21R ALMA CLEAR 58 53 84 CALM 30.19S WAYCROSS CLEAR 56 54 91 NE3 30.20R JESUP NOT AVBL BAXLEY FAIR 55 54 94 NE7 30.21R BRUNSWICK CLEAR 61 57 88 N3 30.17F SAINT SIMONS MOCLDY 65 62 90 N10 30.16R $$ SCZ027-028-034-036>038-045-046-048>050-GAZ119-141-191100- ...LAKE AND SUPPLEMENTAL COASTAL OBSERVATIONS... STATION/POSITION TIME TEMP WIND PRES WAVE SWELL AIR SEA DIR/SP/G HT/PER HT/PER/DIR (UTC) (F) (DEG/KT/KT) (MB) (FT/S) (FT/S/D) WINYAH BAY 0930 58 10/ 5 1023.0S LAKE MURRAY 1020 49 360/ 1/ 3 1024.7 ACE BASIN NERRS 0945 59 10/ 1 1023.0S FORT PULASKI 0900 65 74 20/ 8/ 10 1022.5 SAPELO ISLAND 1000 65 30/ 6 1021.0 $$ ANZ835-935-AMZ111-154-330-350-352-354-370-450-454-472-191100- ...C-MAN AND BUOY OBSERVATIONS... STATION/POSITION TIME TEMP WIND PRES WAVE SWELL AIR SEA DIR/SP/G HT/PER HT/PER/DIR (UTC) (F) (DEG/KT/KT) (MB) (FT/S) (FT/S/D) BUOY 41004 1010 74 79 30/ 19/ 25 1020.9 BUOY 41008 0950 73 77 50/ 21/ 25 1020.5R 6/ 6 FOLLY BEACH CMAN 1000 65 20/ 12/ 14 1023.3S CAPERS NEARSHORE 1008 63 73 30/ 17/ 21 1022.1R FRIPP NEARSHORE 1008 69 40/ 17/ 21 N/A STATION/POSITION TIME TEMP WIND PRES WAVE SWELL AIR SEA DIR/SP/G HT/PER HT/PER/DIR (UTC) (F) (DEG/KT/KT) (MB) (FT/S) (FT/S/D) 5E ST. MARYS GA 1000 78 N/A 7/ 7 2/ 90/11 FRYING PAN BUOY 1010 73 76 30/ 17/ 21 1022.0 BUOY 41025 0950 74 81 80/ 10/ 16 1023.1F 5/ 9 5/120/ 9 CAPE LOOKOUT NC 1000 64 360/ 11/ 14 1023.3R BUOY 41002 0950 77 80 60/ 19/ 25 1018.9R 9/ 8 BUOY 41010 NOT AVBL ST AUGUSTINE FL 1000 76 78 20/ 14/ 15 1019.6R $$

USA.gov is the U.S. government's official web portal to all federal, state and local government web resources and services.